Regional Weather Roundup
Issued by NWS Jackson, KY

Home | Current Version | Previous Version | Text Only | Print | Product List | Glossary Off
Versions: 1 2 3 4 5 6 7 8 9 10 11 12 13 14 15 16 17 18 19 20 21 22 23 24 25 26 27 28 29 30 31 32 33 34 35 36 37 38 39 40 41 42 43 44 45 46 47 48 49 50

000
ASUS43 KJKL 080210
RWRJKL

EAST KENTUCKY HOURLY WEATHER ROUNDUP
NATIONAL WEATHER SERVICE JACKSON KY
1000 PM EDT TUE JUL 07 2015

NOTE: "FAIR" INDICATES FEW OR NO CLOUDS BELOW 12,000 FEET WITH
NO SIGNIFICANT WEATHER AND/OR OBSTRUCTIONS TO VISIBILITY.

* THESE REPORTS ARE NOT UNDER NWS QUALITY CONTROL AND MAY NOT
  REPORT WEATHER SUCH AS PRECIPITATION AND FOG.

KYZ079-080-083-085-087-088-110-112-115-119-120-080300
...EASTERN KENTUCKY...

CITY           SKY/WX    TMP DP  RH WIND       PRES   REMARKS
JACKSON        LGT RAIN  70  67  90 NW8       30.09R FOG
LONDON         LGT RAIN  80  67  64 SW5       30.07R
SOMERSET*      RAIN      72  66  83 N3        30.08R
MONTICELLO*    CLOUDY    77  71  81 SW10      30.10R
MIDDLESBORO*   MOCLDY    74  73  94 CALM      30.10R
HARLAN APT*      N/A     77  64  65 CALM      30.11R
HAZARD APT*    CLOUDY    77  73  88 CALM      30.07R
BLACK MTN*       N/A     66  66 100 SW6         N/A
PIKEVILLE APT* CLOUDY    75  70  83 S3        30.09R
BIG SANDY*     CLOUDY    76  70  82 CALM      30.06R
MOREHEAD APT*  CLOUDY    68  68 100 S6        30.06F
$$

KYZ035-036-041-042-044-050-067-078-099-080300
...CENTRAL KENTUCKY...

CITY           SKY/WX    TMP DP  RH WIND       PRES   REMARKS
MT STERLING*   HVY RAIN  68  68 100 S8        30.05S
FLEMING/MASON* PTCLDY    70  70 100 S6        30.04R
DANVILLE*      CLOUDY    68  68 100 S3        30.06S
RICHMOND*      CLOUDY    68  64  88 S6        30.06R
LEXINGTON      CLOUDY    71  68  90 S5        30.03S
FRANKFORT      CLOUDY    72  68  87 S8        30.01R
$$

KYZ091>093-OHZ055-061-077-WVZ005-015-034-035-042-080300
...SOUTHERN OHIO/WEST VIRGINIA...

CITY           SKY/WX    TMP DP  RH WIND       PRES   REMARKS
COVINGTON      LGT RAIN  72  70  94 SW8       30.00R FOG
COLUMBUS       CLOUDY    73  72  94 SW6       29.95S
DAYTON         LGT RAIN  69  67  93 NW16      29.98R FOG
WILMINGTON     RAIN      72  69  90 SW18      29.95S FOG
HUNTINGTON     LGT RAIN  70  68  93 CALM      30.01F
CHARLESTON     CLOUDY    71  67  87 SW6       30.04R
PINEVILLE*     CLOUDY    68  68 100 MISG      30.16S FOG
BECKLEY        CLOUDY    72  62  71 S7        30.15R
BLUEFIELD      CLOUDY    74  63  68 W9        30.19R
$$

VAZ002-007-008-TNZ017-027-036-066-071-080300
...SOUTHWEST VIRGINIA/EAST TENNESSEE...

CITY           SKY/WX    TMP DP  RH WIND       PRES   REMARKS
WISE*          CLOUDY    73  63  68 SW7       30.18S
JONESVILLE*      N/A    N/A N/A N/A MISG        N/A
ABINGDON*      MOCLDY    75  68  78 CALM      30.16R
BRISTOL        CLOUDY    77  68  73 CALM      30.12R
KNOXVILLE      MOCLDY    79  70  74 SW7       30.09R
OAK RIDGE      MOCLDY    81  70  69 CALM      30.11R
CROSSVILLE     CLOUDY    76  68  76 CALM      30.15R
NASHVILLE      CLOUDY    73  72  96 S5        30.06S
$$

...KEY TO REMARKS...
VSB - VISIBILITY IN MILES
WCI - WIND CHILL INDEX
HX  - HEAT INDEX

$$


USA.gov is the U.S. government's official web portal to all federal, state and local government web resources and services.